Regional Weather Roundup
Issued by NWS Nashville, TN

Home | Current Version | Previous Version | Text Only | Print | Product List | Glossary On
Versions: 1 2 3 4 5 6 7 8 9 10 11 12 13 14 15 16 17 18 19 20 21 22 23 24 25 26 27 28 29 30 31 32 33 34 35 36 37 38 39 40 41 42 43 44 45 46 47 48 49 50
000
ASUS44 KOHX 041710
RWROHX
MIDDLE TENNESSEE HOURLY WEATHER ROUNDUP
NATIONAL WEATHER SERVICE NASHVILLE TN
1200 PM CDT WED MAY 04 2016

NOTE: "FAIR" INDICATES FEW OR NO CLOUDS BELOW 12,000 FEET WITH
NO SIGNIFICANT WEATHER AND/OR OBSTRUCTIONS TO VISIBILITY.

* THESE REPORTS ARE NOT UNDER NWS QUALITY CONTROL AND MAY NOT
  REPORT WEATHER SUCH AS PRECIPITATION AND FOG.


TNZ005>011-023>034-057-059-062>066-078-080-041800
...NORTHERN MIDDLE TENNESSEE...

CITY           SKY/WX    TMP DP  RH WIND       PRES   REMARKS
CLARKSVILLE    CLOUDY    63  48  58 W8        29.75S
CROSSVILLE     MOSUNNY   62  40  44 MISG      29.80F
NASHVILLE      PTSUNNY   69  44  40 W7        29.76F
SMYRNA         PTSUNNY   67  44  43 NW14      29.77F
SPARTA         MOSUNNY   66  46  48 VRB3      29.77F
$$
TNZ056-058-060-061-075>077-079-093>097-041800
...SOUTHERN MIDDLE TENNESSEE...

CITY           SKY/WX    TMP DP  RH WIND       PRES   REMARKS
COLUMBIA       SUNNY     70  46  43 W10       29.77F
FAYETTEVILLE   MOSUNNY   68  45  42 VRB6G14   29.81F
MCMINNVILLE    MOSUNNY   66  45  45 W14       29.79F
SHELBYVILLE    MOSUNNY   72  46  40 W14       29.79F
TULLAHOMA      MOSUNNY   66  43  42 NW10      29.81F
WINCHESTER     MOSUNNY   64  45  48 W6        29.81F
$$


...KEY TO REMARKS...
VSB - VISIBILITY IN MILES
WCI - WIND CHILL INDEX
HX  - HEAT INDEX




USA.gov is the U.S. government's official web portal to all federal, state and local government web resources and services.